Location: Te Maire Creek
(41.1333°S, 175.9167°E)
Time: 10:56:35
(UTC+00:00)

GAOFEN 3 DEB - Visible Passes

Search period start: 06 October 2024 00:00
Search period end: 16 October 2024 00:00
Orbit: 732 x 744 km, 98.3° (Epoch: 05 October)

Date Brightness Start Highest point End Pass type
(mag) Time Alt. Az. Time Alt. Az. Time Alt. Az.
06 Oct ? 08:05:10 10° SSW 08:09:15 25° WSW 08:13:18 10° WNW visible
07 Oct ? 07:19:58 10° S 07:24:58 65° WSW 07:29:53 10° NNW visible
07 Oct ? 16:53:56 10° ENE 16:57:25 19° ESE 17:00:55 10° SSE visible
08 Oct ? 08:14:46 10° SSW 08:18:28 21° WSW 08:22:09 10° WNW visible
09 Oct ? 07:29:22 10° S 07:34:15 52° WSW 07:39:05 10° NNW visible
09 Oct ? 17:02:45 10° ENE 17:06:38 23° ESE 17:10:32 10° SSE visible
10 Oct ? 08:24:25 10° SSW 08:27:41 18° WSW 08:30:54 10° WNW visible
11 Oct ? 07:38:46 10° S 07:43:30 43° WSW 07:48:12 10° NW visible
12 Oct ? 06:53:59 10° SSE 06:59:02 72° ENE 07:03:59 10° N visible
12 Oct ? 08:34:11 10° SSW 08:36:51 15° WSW 08:39:30 10° W visible
12 Oct ? 16:30:19 10° ESE 16:31:49 11° ESE 16:33:18 10° SE visible
13 Oct ? 07:48:11 10° S 07:52:44 35° WSW 07:57:14 10° NW visible
14 Oct ? 07:03:16 10° SSE 07:08:19 88° ENE 07:13:18 10° NNW visible
14 Oct ? 08:44:12 10° SW 08:46:00 12° WSW 08:47:48 10° W visible
14 Oct ? 16:38:29 10° E 16:40:57 14° ESE 16:43:26 10° SSE visible
15 Oct ? 07:57:38 10° S 08:01:57 29° WSW 08:06:11 10° NW visible
